Weather History for PHOG - August, 2013

Change the Weather History Date:

Monday, August 19, 2013

  Actual Average Record
Temperature  
Mean Temperature 79 °F 80 °F  
Max Temperature 89 °F 88 °F 98 °F (1951)
Min Temperature 68 °F 71 °F 63 °F (1952)
Degree Days  
Heating Degree Days 0 0  
Month to date heating degree days 0 0  
Since 1 June heating degree days 0 0  
Since 1 July heating degree days 0 0  
Cooling Degree Days 14 15  
Month to date cooling degree days 298 285  
Year to date cooling degree days 2600 2371  
Since 1 June cooling degree days 1216 1112  
Growing Degree Days 28 (Base 50)    
Moisture  
Dew Point 68 °F    
Average Humidity 69    
Maximum Humidity 82    
Minimum Humidity 55    
Precipitation  
Precipitation 0.00 in 0.01 in 0.36 in (2005)
Month to date precipitation 0.53 0.33  
Year to date precipitation 8.65 10.53  
Snow  
Snow 0.00 in - - ()
Month to date snowfall 0.0  
Since 1 June snowfall 0.0  
Since 1 July snowfall 0.0  
Snow Depth 0.00 in    
Sea Level Pressure  
Sea Level Pressure 30.00 in    
Wind  
Wind Speed 13 mph (NE)    
Max Wind Speed 24 mph    
Max Gust Speed 33 mph    
Visibility 10 miles    
Events      
T = Trace of Precipitation, MM = Missing Value Source: NWS Daily Summary

Daily Weather History Graph

Daily Weather History Graph

Search for Another Location

Airport or City:

Trip Planner

Search our weather history database for the weather conditions in past years. The results will help you decide how hot, cold, wet, or windy it might be!

Date:

Astronomy

Aug. 19, 2013 Rise Set
Actual Time 6:06 AM HST 6:52 PM HST
Civil Twilight 5:43 AM HST 7:14 PM HST
Nautical Twilight 5:16 AM HST 7:41 PM HST
Astronomical Twilight 4:48 AM HST 8:09 PM HST
Moon 5:52 PM HST (8/19) 4:41 AM HST (8/19)
Length of Visible Light 13h 31m
Length of Day
12h 46m
Waxing Gibbous, 98% of the Moon is Illuminated
Aug 19
Waxing Gibbous
Aug 20
Full
Aug 27
Last Quarter
Sep 5
New
Sep 12
First Quarter

Hourly Weather History & Observations

Time (HST) Temp. Heat Index Dew Point Humidity Pressure Visibility Wind Dir Wind Speed Gust Speed Precip Events Conditions
12:54 AM 73.9 °F - 66.0 °F 76% 30.03 in 10.0 mi ENE 5.8 mph - N/A   Clear
1:54 AM 73.9 °F - 64.0 °F 71% 30.01 in 10.0 mi NNE 6.9 mph - N/A   Clear
2:54 AM 75.0 °F - 63.0 °F 66% 29.99 in 10.0 mi NE 10.4 mph - N/A   Clear
3:54 AM 71.1 °F - 62.1 °F 73% 30.00 in 10.0 mi NE 5.8 mph - N/A   Clear
4:54 AM 69.1 °F - 59.0 °F 70% 30.01 in 10.0 mi NE 3.5 mph - N/A   Clear
5:54 AM 71.1 °F - 62.1 °F 73% 30.01 in 10.0 mi NNE 5.8 mph - N/A   Clear
7:54 AM 79.0 °F - 68.0 °F 69% 30.03 in 10.0 mi NE 9.2 mph - N/A   Partly Cloudy
8:54 AM 82.0 °F 84.5 °F 66.9 °F 60% 30.03 in 10.0 mi NE 16.1 mph 21.9 mph N/A   Partly Cloudy
9:54 AM 82.0 °F 84.9 °F 68.0 °F 62% 30.04 in 10.0 mi NE 19.6 mph 25.3 mph N/A   Scattered Clouds
10:54 AM 86.0 °F 89.4 °F 68.0 °F 55% 30.03 in 10.0 mi NNE 19.6 mph - N/A   Scattered Clouds
11:54 AM 86.0 °F 89.4 °F 68.0 °F 55% 30.03 in 10.0 mi NE 19.6 mph 25.3 mph N/A   Scattered Clouds
12:54 PM 86.0 °F 90.1 °F 69.1 °F 57% 30.01 in 10.0 mi NNE 21.9 mph - N/A   Scattered Clouds
1:54 PM 87.1 °F 92.0 °F 70.0 °F 57% 30.00 in 10.0 mi NE 19.6 mph 28.8 mph N/A   Scattered Clouds
2:54 PM 87.1 °F 92.8 °F 71.1 °F 59% 29.99 in 10.0 mi NE 18.4 mph 25.3 mph N/A   Scattered Clouds
3:54 PM 84.9 °F 90.1 °F 71.1 °F 63% 29.98 in 10.0 mi NNE 20.7 mph 28.8 mph N/A   Scattered Clouds
4:54 PM 81.0 °F 84.9 °F 71.1 °F 72% 29.97 in 10.0 mi ENE 13.8 mph 19.6 mph N/A   Scattered Clouds
5:54 PM 79.0 °F - 69.1 °F 72% 29.96 in 10.0 mi ENE 11.5 mph 18.4 mph N/A   Scattered Clouds
6:54 PM 78.1 °F - 68.0 °F 71% 29.97 in 10.0 mi NE 9.2 mph - N/A   Clear
7:54 PM 77.0 °F - 69.1 °F 76% 29.96 in 10.0 mi NE 4.6 mph - N/A   Partly Cloudy
8:54 PM 73.0 °F - 70.0 °F 90% 30.00 in 10.0 mi Calm Calm - N/A   Partly Cloudy
9:54 PM 75.9 °F - 70.0 °F 82% 30.01 in 10.0 mi Calm Calm - N/A   Mostly Cloudy
10:54 PM 75.9 °F - 69.1 °F 79% - 10.0 mi ENE 4.6 mph - N/A   Mostly Cloudy
11:54 PM 75.0 °F - 70.0 °F 84% - 10.0 mi Calm Calm - N/A   Mostly Cloudy